This demonstration page uses our WeatherBlox Daily Observations layout. Learn more.

Left ArrowRight Arrow

Hourly Observations for March 17, 2015

Temp ( °F °C ) Dew Point ( °F °C ) Humidity (%) Winds ( mph kmh ) Pressure ( in mb ) Visibility ( mi km ) Precip ( " mm )
12:53 am 00:53 undefined 28 -2.2 25 -3.9 88 88 E 8 13 30.54 1034 10 16 N/A
1:53 am 01:53 undefined 27 -2.8 24 -4.4 89 89 ENE 8 13 30.53 1034 10 16 N/A
2:53 am 02:53 undefined 27 -2.8 25 -3.9 92 92 E 13 20 30.50 1033 10 16 N/A
3:53 am 03:53 undefined 26 -3.3 24 -4.4 92 92 ENE 7 11 30.47 1032 10 16 N/A
4:53 am 04:53 undefined 26 -3.3 23 -5 88 88 ENE 9 15 30.45 1031 10 16 N/A
5:53 am 05:53 undefined 26 -3.3 23 -5 88 88 ENE 7 11 30.43 1031 10 16 N/A
6:53 am 06:53 undefined 25 -3.9 23 -5 92 92 ENE 8 13 30.42 1030 10 16 N/A
7:53 am 07:53 undefined 25 -3.9 23 -5 92 92 ENE 12 19 30.40 1029 10 16 N/A
8:53 am 08:53 undefined 28 -2.2 25 -3.9 88 88 ENE 7 11 30.38 1029 10 16 N/A
9:53 am 09:53 undefined 32 undefined 27 -2.8 82 82 E 7 11 30.36 1028 10 16 N/A
10:53 am 10:53 undefined 36 2.2 29 -1.7 76 76 E 8 13 30.33 1027 10 16 N/A
11:53 am 11:53 undefined 41 5 26 -3.3 55 55 E 14 22 30.29 1026 10 16 N/A
12:53 pm 12:53 undefined 39 3.9 29 -1.7 67 67 ENE 17 28 30.27 1025 10 16 N/A
1:53 pm 13:53 undefined 43 6.1 29 -1.7 58 58 E 15 24 30.23 1024 10 16 N/A
2:53 pm 14:53 undefined 43 6.1 31 -0.6 63 63 E 16 26 30.20 1023 10 16 N/A
3:53 pm 15:53 undefined 42 5.6 33 0.6 71 71 ESE 21 33 30.19 1022 10 16 N/A
4:53 pm 16:53 undefined 41 5 32 undefined 70 70 E 14 22 30.16 1021 10 16 N/A
5:53 pm 17:53 undefined 41 5 31 -0.6 67 67 E 18 30 30.14 1021 10 16 N/A
6:53 pm 18:53 undefined 39 3.9 31 -0.6 73 73 E 17 28 30.13 1020 10 16 N/A
7:53 pm 19:53 Mostly Clear with Light Rain 36 2.2 34 1.1 93 93 E 16 26 30.12 1020 10 16 0.01 0.25
8:53 pm 20:53 Mostly Clear with Light Rain 35 1.7 33 0.6 93 93 E 14 22 30.11 1020 8 13 0.02 0.51
9:53 pm 21:53 Partly Cloudy with Isolated Snow Showers 34 1.1 33 0.6 97 97 E 13 20 30.09 1019 7 11 0.03 0.76
10:53 pm 22:53 Partly Cloudy with Isolated Snow Showers 33 0.6 32 undefined 96 96 E 10 17 30.07 1018 6 10 0.02 0.51
11:53 pm 23:53 Mostly Clear with Light Rain 33 0.6 32 undefined 96 96 ENE 10 17 30.05 1018 7 11 0.03 0.76

Powered by AerisWeather